Last 24 Hours

Pinyon

10 Minute Data | America/Los_Angeles
as of 5/3/26 7:03 PM PDT
Date & Time Temp (°F) Dew Pt (°F) RH (%) Wind Spd (mph) Wind Dir (°) Wind Gust (mph) Wind Gst Dir (°) Daily Max Temp (°F) Daily Min Temp (°F)
5/3/26 - 1900 53.8 44.7 71 26.1 NNW | 336 38.9 NNW | 346 74.4 53.4
5/3/26 - 1850 54.8 44.7 69 24.2 NNW | 333 34.5 NNW | 335 74.4 54.1
5/3/26 - 1840 55.8 45.0 67 22.7 NNW | 335 33.2 NNW | 343 74.4 55.5
5/3/26 - 1830 56.7 44.7 64 23.5 NNW | 333 32.3 NNW | 330 74.4 56.1
5/3/26 - 1820 57.1 44.5 63 23.7 NNW | 335 34.0 NNW | 332 74.4 56.9
5/3/26 - 1810 57.9 44.6 61 23.2 NNW | 339 38.2 NNW | 336 74.4 57.0
5/3/26 - 1800 58.4 44.2 59 23.8 NNW | 345 36.4 NNW | 340 74.4 57.0
5/3/26 - 1750 59.6 44.0 56 16.7 NNW | 343 28.5 NNW | 348 74.4 57.0
5/3/26 - 1740 60.3 43.6 54 18.3 NNW | 343 28.7 NNW | 336 74.4 57.0
5/3/26 - 1730 60.9 43.2 52 18.3 NNW | 346 27.5 NNW | 338 74.4 57.0
5/3/26 - 1720 61.0 43.5 52 16.9 NNW | 344 25.3 NNW | 341 74.4 57.0
5/3/26 - 1710 61.0 43.5 52 18.2 NNW | 340 26.7 NNW | 333 74.4 57.0
5/3/26 - 1700 61.5 43.3 51 18.9 NNW | 336 28.7 NNW | 345 74.4 57.0
5/3/26 - 1650 61.8 43.0 50 21.8 NNW | 331 30.5 NNW | 339 74.4 57.0
5/3/26 - 1640 62.0 42.2 48 21.1 NW | 326 31.0 NW | 319 74.4 57.0
5/3/26 - 1630 61.9 43.6 51 22.7 NNW | 336 33.2 N | 2 74.4 57.0
5/3/26 - 1620 61.9 44.9 54 23.0 NNW | 339 34.4 NNW | 344 74.4 57.0
5/3/26 - 1610 62.5 45.8 54 23.8 NNW | 340 34.4 NNW | 340 74.4 57.0
5/3/26 - 1600 63.2 45.8 53 22.5 NNW | 340 32.7 NNE | 12 74.4 57.0
5/3/26 - 1550 63.6 45.4 51 24.0 NNW | 335 33.0 NNW | 343 74.4 57.0
5/3/26 - 1540 64.9 45.3 49 23.0 NNW | 338 33.9 NNW | 329 74.4 57.0
5/3/26 - 1530 65.9 44.6 46 22.2 NNW | 334 30.8 NNW | 333 74.4 57.0
5/3/26 - 1520 66.2 44.6 45 22.2 NNW | 336 32.0 NNW | 335 74.4 57.0
5/3/26 - 1510 66.6 44.1 44 20.5 NNW | 339 31.8 N | 350 74.4 57.0
5/3/26 - 1500 66.0 44.5 46 21.3 NNW | 340 30.3 NNW | 337 74.4 57.0
5/3/26 - 1450 66.2 44.8 46 20.9 NNW | 338 30.2 NNW | 346 74.4 57.0
5/3/26 - 1440 66.9 45.0 45 21.9 NNW | 340 34.7 N | 349 74.4 57.0
5/3/26 - 1430 68.0 44.3 42 18.6 NNW | 334 27.3 NNW | 329 74.4 57.0
5/3/26 - 1420 67.4 43.4 42 20.2 NNW | 338 31.4 N | 349 74.4 57.0
5/3/26 - 1410 68.4 43.5 40 20.4 NNW | 337 31.9 NNW | 331 74.4 57.0
5/3/26 - 1400 69.4 42.7 38 19.1 NNW | 340 30.4 N | 351 74.4 57.0
5/3/26 - 1350 69.9 40.4 34 19.5 NNW | 334 30.4 NNW | 345 74.4 57.0
5/3/26 - 1340 69.2 42.6 38 19.4 NNW | 348 30.7 N | 10 74.4 57.0
5/3/26 - 1330 69.8 42.5 37 18.2 NNW | 341 27.4 N | 354 74.4 57.0
5/3/26 - 1320 70.4 35.7 28 18.8 NNW | 344 33.8 N | 4 74.4 57.0
5/3/26 - 1310 70.9 34.0 26 17.5 NNW | 333 28.1 N | 354 74.4 57.0
5/3/26 - 1300 70.9 32.6 24 18.6 NNW | 342 29.2 N | 349 74.4 57.0
5/3/26 - 1250 70.8 33.0 25 20.7 NNW | 337 31.6 NNW | 339 74.4 57.0
5/3/26 - 1240 71.3 33.0 24 15.9 NNW | 340 26.3 NNW | 329 74.4 57.0
5/3/26 - 1230 72.0 31.4 22 16.6 NNW | 340 26.4 NW | 320 74.4 57.0
5/3/26 - 1220 72.1 30.6 21 8.6 NNW | 344 22.5 W | 280 74.4 57.0
5/3/26 - 1210 72.8 29.9 20 11.4 NNW | 332 23.8 NW | 326 74.4 57.0
5/3/26 - 1200 72.3 30.0 21 8.7 NNW | 328 19.0 NNW | 342 74.0 57.0
5/3/26 - 1150 72.8 29.6 20 10.0 NW | 318 20.8 NNW | 331 74.0 57.0
5/3/26 - 1140 72.5 30.6 21 5.4 WNW | 284 14.5 NNW | 328 73.7 57.0
5/3/26 - 1130 72.0 34.5 26 5.4 SE | 128 11.5 SSE | 161 73.1 57.0
5/3/26 - 1120 72.0 28.4 20 8.2 NW | 320 19.9 NW | 311 73.1 57.0
5/3/26 - 1110 71.1 28.4 20 5.2 W | 270 16.5 WNW | 289 72.5 57.0
5/3/26 - 1100 71.8 28.6 20 8.8 WNW | 292 19.1 W | 272 72.5 57.0
5/3/26 - 1050 71.8 28.8 20 6.2 WNW | 289 14.1 WNW | 285 72.4 57.0
5/3/26 - 1040 71.6 30.5 22 5.7 SW | 222 14.9 W | 269 72.4 57.0
5/3/26 - 1030 70.5 30.1 22 5.1 WNW | 293 17.3 W | 281 72.1 57.0
5/3/26 - 1020 69.6 33.0 26 2.2 S | 175 7.0 SSE | 148 72.1 57.0
5/3/26 - 1010 70.0 31.8 24 5.2 SE | 133 12.7 SSE | 166 72.1 57.0
5/3/26 - 1000 71.4 31.0 22 6.5 WSW | 246 16.7 WNW | 293 72.1 57.0
5/3/26 - 0950 70.1 29.3 22 12.3 NW | 326 24.1 NNW | 335 71.4 57.0
5/3/26 - 0940 69.7 29.0 22 11.3 NNW | 342 20.7 NNW | 348 70.4 57.0
5/3/26 - 0930 68.7 28.6 22 12.8 NNW | 338 20.6 NW | 317 69.1 57.0
5/3/26 - 0920 68.4 28.6 22 12.2 NNW | 344 18.0 NNW | 344 68.8 57.0
5/3/26 - 0910 67.9 28.5 23 12.2 NNW | 341 18.1 NNW | 344 68.2 57.0
5/3/26 - 0900 67.4 28.6 23 11.6 NNW | 347 20.0 N | 351 67.9 57.0
5/3/26 - 0850 67.0 28.4 23 11.4 N | 354 17.8 NNW | 345 67.8 57.0
5/3/26 - 0840 67.2 28.4 23 10.9 N | 350 18.0 NNW | 330 67.8 57.0
5/3/26 - 0830 66.6 28.0 23 10.4 N | 356 16.7 NNE | 14 66.9 57.0
5/3/26 - 0820 66.1 27.6 23 9.9 N | 352 14.6 N | 4 66.4 57.0
5/3/26 - 0810 66.0 27.3 23 9.3 NNW | 346 15.1 N | 352 66.4 57.0
5/3/26 - 0800 65.9 26.9 23 9.2 NNW | 343 13.6 NNW | 337 66.2 57.0
5/3/26 - 0750 65.6 26.9 23 9.1 NNW | 347 12.2 NNW | 344 65.8 57.0
5/3/26 - 0740 65.1 26.9 23 9.8 NNW | 341 13.3 NNW | 344 65.4 57.0
5/3/26 - 0730 64.5 26.9 24 8.6 NNW | 337 12.7 NNW | 344 65.2 57.0
5/3/26 - 0720 63.3 26.7 25 9.1 NNW | 335 12.9 NNW | 330 65.2 57.0
5/3/26 - 0710 62.1 26.7 26 9.6 NNW | 336 12.6 NNW | 332 65.2 57.0
5/3/26 - 0700 61.0 25.8 26 10.2 NNW | 335 13.5 NNW | 335 65.2 57.0
5/3/26 - 0650 59.9 25.1 26 10.8 NNW | 338 14.0 NNW | 327 65.2 57.0
5/3/26 - 0640 59.5 24.7 26 10.6 NNW | 338 13.0 NNW | 336 65.2 57.0
5/3/26 - 0630 59.8 24.4 26 10.9 NNW | 336 13.8 NNW | 340 65.2 57.0
5/3/26 - 0620 59.5 24.1 25 10.9 NNW | 336 13.7 NNW | 344 65.2 57.0
5/3/26 - 0610 59.4 23.9 25 10.8 NNW | 335 13.6 NNW | 345 65.2 57.0
5/3/26 - 0600 58.8 23.9 26 11.5 NNW | 334 14.5 NNW | 342 65.2 57.0
5/3/26 - 0550 58.2 23.8 26 11.1 NNW | 339 13.5 NNW | 344 65.2 57.0
5/3/26 - 0540 57.6 23.8 27 10.9 NNW | 342 14.4 NNW | 335 65.2 57.0
5/3/26 - 0530 57.3 23.8 27 11.4 NNW | 343 14.0 NNW | 341 65.2 57.0
5/3/26 - 0520 57.5 23.7 27 10.8 NNW | 343 13.8 NNW | 348 65.2 57.4
5/3/26 - 0510 57.8 23.6 27 11.0 NNW | 344 13.7 N | 352 65.2 57.4
5/3/26 - 0500 58.6 23.6 26 10.4 NNW | 346 12.8 NNW | 346 65.2 58.2
5/3/26 - 0450 59.5 23.6 25 10.0 NNW | 343 12.3 NNW | 344 65.2 59.0
5/3/26 - 0440 60.0 23.5 24 9.3 NNW | 338 11.0 NW | 325 65.2 59.5
5/3/26 - 0430 60.1 23.5 24 9.0 NNW | 341 11.5 NNW | 337 65.2 59.7
5/3/26 - 0420 60.4 23.4 24 9.1 NNW | 348 11.9 NNW | 348 65.2 59.7
5/3/26 - 0410 60.8 23.4 24 8.7 NNW | 341 13.3 NNW | 347 65.2 59.7
5/3/26 - 0400 60.4 23.4 24 9.0 NNW | 342 11.5 NNW | 341 65.2 59.7
5/3/26 - 0350 60.0 23.4 24 7.6 N | 352 9.7 N | 0 65.2 59.7
5/3/26 - 0340 60.0 23.5 24 7.4 N | 353 11.1 N | 351 65.2 59.7
5/3/26 - 0330 60.1 23.5 24 9.5 N | 352 13.2 NNW | 346 65.2 59.7
5/3/26 - 0320 60.2 23.5 24 10.0 NNW | 345 13.2 NNW | 346 65.2 60.1
5/3/26 - 0310 60.6 23.6 24 10.4 NNW | 346 14.5 NNW | 341 65.2 60.2
5/3/26 - 0300 61.4 23.6 23 10.5 NNW | 342 13.9 NNW | 336 65.2 61.2
5/3/26 - 0250 61.7 23.6 23 9.8 NNW | 347 13.2 NNW | 338 65.2 61.2
5/3/26 - 0240 63.1 23.6 22 9.8 N | 355 12.8 N | 354 65.2 62.5
5/3/26 - 0230 63.9 23.6 21 8.5 N | 6 12.9 N | 8 65.2 63.2
5/3/26 - 0220 64.8 23.6 21 9.0 N | 1 16.4 N | 350 65.2 63.2
5/3/26 - 0210 64.8 23.5 21 9.5 N | 353 17.5 N | 4 65.2 63.2
5/3/26 - 0200 63.9 23.4 21 8.0 N | 351 12.9 NNW | 343 64.3 63.2
5/3/26 - 0150 63.4 23.6 22 8.7 NNW | 340 11.7 NNW | 340 63.9 63.2
5/3/26 - 0140 63.4 23.7 22 10.8 NNW | 331 14.7 NNW | 330 63.9 63.2
5/3/26 - 0130 63.3 23.8 22 10.7 NNW | 331 13.6 NNW | 327 63.9 63.2
5/3/26 - 0120 63.3 23.8 22 11.4 NW | 326 16.2 NNW | 336 63.9 63.2
5/3/26 - 0110 63.8 23.9 22 11.8 NNW | 328 15.3 NNW | 328 63.9 63.5
5/3/26 - 0100 64.0 23.9 22 12.2 NW | 326 15.5 NNW | 333 78.2 63.6
5/3/26 - 0050 64.3 24.1 21 12.3 NW | 325 15.4 NW | 323 78.2 63.6
5/3/26 - 0040 64.2 24.2 22 12.8 NW | 326 16.7 NW | 319 78.2 63.6
5/3/26 - 0030 64.3 24.3 22 13.1 NW | 325 16.9 NW | 325 78.2 63.6
5/3/26 - 0020 64.6 24.6 22 14.4 NW | 324 19.1 NNW | 328 78.2 63.6
5/3/26 - 0010 65.0 24.9 22 14.5 NW | 326 18.9 NW | 317 78.2 63.6
5/3/26 - 0000 65.2 24.9 21 15.2 NW | 325 20.1 NW | 318 78.2 63.6
5/2/26 - 2350 65.4 25.1 22 14.6 NNW | 328 19.8 NNW | 336 78.2 63.6
5/2/26 - 2340 65.6 25.1 21 14.3 NNW | 328 20.2 NW | 324 78.2 63.6
5/2/26 - 2330 65.7 25.2 21 15.3 NW | 325 20.6 NW | 321 78.2 63.6
5/2/26 - 2320 66.0 25.3 21 15.1 NW | 324 21.5 NW | 320 78.2 63.6
5/2/26 - 2310 66.0 25.7 22 14.7 NW | 322 21.7 NW | 320 78.2 63.6
5/2/26 - 2300 66.0 25.7 22 12.3 NW | 324 18.6 NW | 320 78.2 63.6
5/2/26 - 2250 65.8 26.1 22 12.5 NW | 326 18.3 NW | 319 78.2 63.6
5/2/26 - 2240 65.8 26.5 23 12.4 NW | 326 16.9 WNW | 296 78.2 63.6
5/2/26 - 2230 66.0 27.4 23 13.3 NNW | 327 18.4 NNW | 330 78.2 63.6
5/2/26 - 2220 66.0 27.9 24 12.6 NNW | 331 18.6 NNW | 334 78.2 63.6
5/2/26 - 2210 66.0 28.0 24 14.0 NNW | 327 20.5 NNW | 333 78.2 63.6
5/2/26 - 2200 65.6 28.0 24 13.2 NW | 323 18.2 NW | 322 78.2 63.6
5/2/26 - 2150 65.6 28.2 24 13.4 NW | 321 18.0 NW | 320 78.2 63.6
5/2/26 - 2140 65.8 27.4 23 12.0 NW | 321 16.3 NW | 324 78.2 63.6
5/2/26 - 2130 65.8 27.6 24 12.2 NW | 322 18.3 NNW | 333 78.2 63.6
5/2/26 - 2120 65.8 28.0 24 11.2 NW | 323 17.4 NW | 319 78.2 63.6
5/2/26 - 2110 65.6 27.1 23 11.0 NNW | 332 17.2 NNW | 334 78.2 63.6
5/2/26 - 2100 65.5 27.0 23 10.7 NNW | 343 18.0 NNW | 343 78.2 63.6
5/2/26 - 2050 65.7 27.5 24 11.7 NNW | 338 16.7 NNW | 338 78.2 63.6
5/2/26 - 2040 65.9 28.4 24 11.2 NNW | 334 15.3 NNW | 345 78.2 63.6
5/2/26 - 2030 66.1 29.8 26 11.4 NNW | 333 17.2 NNW | 343 78.2 63.6
5/2/26 - 2020 66.3 30.8 26 12.5 NNW | 332 19.1 NNW | 339 78.2 63.6
5/2/26 - 2010 66.6 31.8 27 13.6 NNW | 330 18.0 NW | 326 78.2 63.6
5/2/26 - 2000 67.0 32.2 27 12.8 NNW | 330 18.1 NNW | 329 78.2 63.6
5/2/26 - 1950 67.4 32.6 27 12.9 NNW | 332 18.0 NW | 319 78.2 63.6
5/2/26 - 1940 68.1 33.2 27 13.7 NNW | 330 20.4 NNW | 332 78.2 63.6
5/2/26 - 1930 68.8 34.2 28 12.9 NW | 323 20.2 NW | 318 78.2 63.6
5/2/26 - 1920 69.7 34.1 27 11.4 NNW | 336 16.2 NNW | 333 78.2 63.6
5/2/26 - 1910 70.5 34.2 26 11.5 N | 357 18.5 N | 8 78.2 63.6
5/2/26 - 1900 71.0 34.3 26 12.8 N | 4 19.5 N | 0 78.2 63.6
Max 72.8 45.8 71 26.1 - 38.9 - 78.2 63.6
Avg 64.9 31.1 30 13.4 - 20.3 - - -
Min 53.8 23.4 20 2.2 - 7.0 - 63.9 53.4